Time,TemperatureF,DewpointF,PressureIn,WindDirection,WindDirectionDegrees,WindSpeedMPH,WindSpeedGustMPH,Humidity,HourlyPrecipIn,Conditions,Clouds,dailyrainin,SoftwareType,DateUTC
2013-03-26 00:12:00,38.0,32.0,29.49,NW,308,2.0,5.0,79,0.00,,,0.00,weatherlink.com 1.10,2013-03-26 04:12:00,
2013-03-26 00:27:00,36.9,32.0,29.49,NE,40,0.0,2.0,82,0.00,,,0.00,weatherlink.com 1.10,2013-03-26 04:27:00,
2013-03-26 00:45:00,36.7,32.0,29.50,NNE,13,1.0,5.0,83,0.00,,,0.00,weatherlink.com 1.10,2013-03-26 04:45:00,
2013-03-26 00:57:00,35.8,32.0,29.50,North,6,0.0,3.0,87,0.00,,,0.00,weatherlink.com 1.10,2013-03-26 04:57:00,
2013-03-26 01:12:00,35.5,32.0,29.51,NNW,339,0.0,3.0,88,0.00,,,0.00,weatherlink.com 1.10,2013-03-26 05:12:00,
2013-03-26 01:28:00,34.1,32.0,29.51,NNW,335,0.0,2.0,90,0.00,,,0.00,weatherlink.com 1.10,2013-03-26 05:28:00,
2013-03-26 01:42:00,33.3,31.0,29.51,ENE,76,0.0,0.0,91,0.00,,,0.00,weatherlink.com 1.10,2013-03-26 05:42:00,
2013-03-26 01:57:00,33.2,31.0,29.51,West,274,0.0,0.0,92,0.00,,,0.00,weatherlink.com 1.10,2013-03-26 05:57:00,
2013-03-26 02:12:00,33.6,32.0,29.51,ENE,65,0.0,2.0,93,0.00,,,0.00,weatherlink.com 1.10,2013-03-26 06:12:00,
2013-03-26 02:27:00,33.9,32.0,29.52,North,350,1.0,4.0,93,0.00,,,0.00,weatherlink.com 1.10,2013-03-26 06:27:00,
2013-03-26 02:42:00,33.9,32.0,29.52,NNE,16,1.0,3.0,93,0.00,,,0.00,weatherlink.com 1.10,2013-03-26 06:42:00,
2013-03-26 02:57:00,33.7,32.0,29.52,NNE,20,0.0,1.0,93,0.00,,,0.00,weatherlink.com 1.10,2013-03-26 06:57:00,
2013-03-26 03:12:00,33.7,32.0,29.53,ESE,108,0.0,0.0,93,0.00,,,0.00,weatherlink.com 1.10,2013-03-26 07:12:00,
2013-03-26 03:27:00,33.4,32.0,29.53,NNW,343,0.0,0.0,93,0.00,,,0.00,weatherlink.com 1.10,2013-03-26 07:27:00,
2013-03-26 03:43:00,33.3,32.0,29.54,North,351,0.0,3.0,93,0.01,,,0.01,weatherlink.com 1.10,2013-03-26 07:43:00,
2013-03-26 03:58:00,33.4,32.0,29.54,NW,323,0.0,1.0,93,0.01,,,0.01,weatherlink.com 1.10,2013-03-26 07:58:00,
2013-03-26 04:13:00,33.4,32.0,29.54,NW,323,0.0,1.0,93,0.01,,,0.01,weatherlink.com 1.10,2013-03-26 08:13:00,
2013-03-26 04:28:00,33.4,32.0,29.54,NNE,17,0.0,0.0,93,0.01,,,0.01,weatherlink.com 1.10,2013-03-26 08:28:00,
2013-03-26 04:43:00,33.3,32.0,29.55,NNE,17,0.0,0.0,93,0.00,,,0.01,weatherlink.com 1.10,2013-03-26 08:43:00,
2013-03-26 04:58:00,33.5,32.0,29.55,NNE,18,0.0,0.0,93,0.00,,,0.01,weatherlink.com 1.10,2013-03-26 08:58:00,
2013-03-26 05:13:00,33.4,32.0,29.56,NNE,17,0.0,0.0,93,0.00,,,0.01,weatherlink.com 1.10,2013-03-26 09:13:00,
2013-03-26 05:28:00,33.3,31.0,29.57,NW,319,0.0,0.0,90,0.00,,,0.01,weatherlink.com 1.10,2013-03-26 09:28:00,
2013-03-26 05:43:00,33.3,30.0,29.57,NW,309,1.0,2.0,87,0.00,,,0.01,weatherlink.com 1.10,2013-03-26 09:43:00,
2013-03-26 05:58:00,33.3,30.0,29.58,West,270,1.0,1.0,86,0.00,,,0.01,weatherlink.com 1.10,2013-03-26 09:58:00,
2013-03-26 06:13:00,32.8,29.0,29.59,West,270,0.0,1.0,87,0.00,,,0.01,weatherlink.com 1.10,2013-03-26 10:13:00,
2013-03-26 06:28:00,33.2,29.0,29.60,West,270,0.0,1.0,85,0.00,,,0.01,weatherlink.com 1.10,2013-03-26 10:28:00,
2013-03-26 06:43:00,33.7,29.0,29.60,WNW,290,1.0,2.0,84,0.00,,,0.01,weatherlink.com 1.10,2013-03-26 10:43:00,
2013-03-26 06:58:00,34.0,29.0,29.61,NW,309,0.0,1.0,82,0.00,,,0.01,weatherlink.com 1.10,2013-03-26 10:58:00,
2013-03-26 07:13:00,34.3,29.0,29.62,WNW,292,1.0,4.0,81,0.00,,,0.01,weatherlink.com 1.10,2013-03-26 11:13:00,
2013-03-26 07:28:00,34.7,29.0,29.62,WNW,288,0.0,3.0,80,0.00,,,0.01,weatherlink.com 1.10,2013-03-26 11:28:00,
2013-03-26 07:43:00,35.0,29.0,29.63,NW,316,0.0,3.0,79,0.00,,,0.01,weatherlink.com 1.10,2013-03-26 11:43:00,
2013-03-26 07:58:00,35.4,29.0,29.63,WNW,293,3.0,4.0,77,0.00,,,0.01,weatherlink.com 1.10,2013-03-26 11:58:00,
2013-03-26 08:13:00,35.6,29.0,29.64,NW,311,1.0,4.0,76,0.00,,,0.01,weatherlink.com 1.10,2013-03-26 12:13:00,
2013-03-26 08:28:00,35.9,29.0,29.65,NNW,328,0.0,1.0,76,0.00,,,0.01,weatherlink.com 1.10,2013-03-26 12:28:00,
2013-03-26 08:43:00,36.4,29.0,29.65,North,351,0.0,4.0,75,0.00,,,0.01,weatherlink.com 1.10,2013-03-26 12:43:00,
2013-03-26 08:58:00,36.7,29.0,29.65,NE,41,0.0,3.0,73,0.01,,,0.02,weatherlink.com 1.10,2013-03-26 12:58:00,
2013-03-26 09:13:00,37.1,29.0,29.66,NNW,344,0.0,3.0,72,0.01,,,0.02,weatherlink.com 1.10,2013-03-26 13:13:00,
2013-03-26 09:28:00,37.2,29.0,29.66,North,4,1.0,3.0,71,0.02,,,0.03,weatherlink.com 1.10,2013-03-26 13:28:00,
2013-03-26 09:43:00,37.5,29.0,29.66,WNW,303,0.0,2.0,71,0.02,,,0.03,weatherlink.com 1.10,2013-03-26 13:43:00,
2013-03-26 09:58:00,37.9,29.0,29.66,NE,54,2.0,5.0,69,0.01,,,0.03,weatherlink.com 1.10,2013-03-26 13:58:00,
2013-03-26 10:13:00,38.6,28.0,29.67,North,349,1.0,4.0,66,0.01,,,0.03,weatherlink.com 1.10,2013-03-26 14:13:00,
2013-03-26 10:28:00,39.4,29.0,29.67,WNW,293,4.0,4.0,67,0.00,,,0.03,weatherlink.com 1.10,2013-03-26 14:28:00,
2013-03-26 10:43:00,39.3,29.0,29.68,NW,316,1.0,6.0,66,0.01,,,0.04,weatherlink.com 1.10,2013-03-26 14:43:00,
2013-03-26 10:58:00,39.8,29.0,29.67,WNW,300,5.0,9.0,65,0.01,,,0.04,weatherlink.com 1.10,2013-03-26 14:58:00,
2013-03-26 11:14:00,41.5,30.0,29.68,WNW,290,3.0,5.0,64,0.01,,,0.04,weatherlink.com 1.10,2013-03-26 15:14:00,
2013-03-26 11:29:00,42.5,30.0,29.68,NNE,16,0.0,4.0,61,0.01,,,0.04,weatherlink.com 1.10,2013-03-26 15:29:00,
2013-03-26 11:44:00,43.6,30.0,29.68,WNW,293,3.0,6.0,59,0.00,,,0.04,weatherlink.com 1.10,2013-03-26 15:44:00,
2013-03-26 11:59:00,43.4,30.0,29.68,NNW,339,2.0,4.0,60,0.00,,,0.04,weatherlink.com 1.10,2013-03-26 15:59:00,
2013-03-26 12:14:00,44.0,29.0,29.68,WNW,301,3.0,5.0,57,0.00,,,0.04,weatherlink.com 1.10,2013-03-26 16:14:00,
2013-03-26 12:29:00,44.6,29.0,29.68,NW,315,1.0,7.0,54,0.00,,,0.04,weatherlink.com 1.10,2013-03-26 16:29:00,
2013-03-26 12:44:00,45.2,29.0,29.67,West,267,2.0,4.0,54,0.00,,,0.04,weatherlink.com 1.10,2013-03-26 16:44:00,
2013-03-26 12:59:00,44.7,29.0,29.67,NW,314,1.0,5.0,55,0.00,,,0.04,weatherlink.com 1.10,2013-03-26 16:59:00,
2013-03-26 13:14:00,44.5,29.0,29.67,NW,311,3.0,4.0,54,0.00,,,0.04,weatherlink.com 1.10,2013-03-26 17:14:00,
2013-03-26 13:29:00,44.8,29.0,29.68,NW,307,2.0,7.0,55,0.00,,,0.04,weatherlink.com 1.10,2013-03-26 17:29:00,
2013-03-26 13:44:00,45.5,28.0,29.67,WNW,295,6.0,7.0,51,0.00,,,0.04,weatherlink.com 1.10,2013-03-26 17:44:00,
2013-03-26 13:59:00,46.5,28.0,29.68,WNW,282,6.0,7.0,49,0.00,,,0.04,weatherlink.com 1.10,2013-03-26 17:59:00,
2013-03-26 14:14:00,45.4,28.0,29.67,NW,319,3.0,6.0,51,0.00,,,0.04,weatherlink.com 1.10,2013-03-26 18:14:00,
2013-03-26 14:29:00,46.3,28.0,29.67,NNE,29,4.0,5.0,50,0.00,,,0.04,weatherlink.com 1.10,2013-03-26 18:29:00,
2013-03-26 14:44:00,45.6,28.0,29.67,WNW,293,1.0,6.0,51,0.00,,,0.04,weatherlink.com 1.10,2013-03-26 18:44:00,
2013-03-26 15:00:00,45.3,28.0,29.67,NW,304,3.0,6.0,51,0.00,,,0.04,weatherlink.com 1.10,2013-03-26 19:00:00,
2013-03-26 15:14:00,45.6,29.0,29.67,WNW,301,2.0,3.0,52,0.00,,,0.04,weatherlink.com 1.10,2013-03-26 19:14:00,
2013-03-26 15:29:00,45.9,28.0,29.67,WNW,302,3.0,5.0,49,0.00,,,0.04,weatherlink.com 1.10,2013-03-26 19:29:00,
2013-03-26 15:44:00,46.8,28.0,29.67,West,263,1.0,8.0,48,0.00,,,0.04,weatherlink.com 1.10,2013-03-26 19:44:00,
2013-03-26 15:59:00,46.3,28.0,29.68,NW,315,2.0,7.0,50,0.00,,,0.04,weatherlink.com 1.10,2013-03-26 19:59:00,
2013-03-26 16:14:00,46.2,29.0,29.68,North,351,0.0,3.0,51,0.00,,,0.04,weatherlink.com 1.10,2013-03-26 20:14:00,
2013-03-26 16:29:00,46.1,28.0,29.68,NW,316,1.0,4.0,49,0.00,,,0.04,weatherlink.com 1.10,2013-03-26 20:29:00,
2013-03-26 16:44:00,47.1,28.0,29.68,NW,315,2.0,6.0,47,0.00,,,0.04,weatherlink.com 1.10,2013-03-26 20:44:00,
2013-03-26 16:59:00,47.1,27.0,29.69,NNW,335,0.0,5.0,45,0.00,,,0.04,weatherlink.com 1.10,2013-03-26 20:59:00,
2013-03-26 17:14:00,47.1,24.0,29.69,West,281,2.0,6.0,41,0.00,,,0.04,weatherlink.com 1.10,2013-03-26 21:14:00,
2013-03-26 17:29:00,46.6,24.0,29.69,West,274,1.0,3.0,42,0.00,,,0.04,weatherlink.com 1.10,2013-03-26 21:29:00,
2013-03-26 17:44:00,46.8,25.0,29.70,WNW,298,2.0,4.0,42,0.00,,,0.04,weatherlink.com 1.10,2013-03-26 21:44:00,
2013-03-26 17:59:00,46.6,25.0,29.70,NW,306,3.0,5.0,43,0.00,,,0.04,weatherlink.com 1.10,2013-03-26 21:59:00,
2013-03-26 18:14:00,46.3,25.0,29.71,West,281,1.0,5.0,43,0.00,,,0.04,weatherlink.com 1.10,2013-03-26 22:14:00,
2013-03-26 18:29:00,46.3,26.0,29.71,West,277,2.0,5.0,45,0.00,,,0.04,weatherlink.com 1.10,2013-03-26 22:29:00,
2013-03-26 18:44:00,45.5,26.0,29.72,NW,308,2.0,5.0,46,0.00,,,0.04,weatherlink.com 1.10,2013-03-26 22:44:00,
2013-03-26 18:59:00,44.5,25.0,29.72,WNW,297,0.0,4.0,47,0.00,,,0.04,weatherlink.com 1.10,2013-03-26 22:59:00,
2013-03-26 19:14:00,43.6,25.0,29.72,WNW,293,0.0,3.0,49,0.00,,,0.04,weatherlink.com 1.10,2013-03-26 23:14:00,
2013-03-26 19:29:00,42.8,26.0,29.73,West,280,0.0,0.0,51,0.00,,,0.04,weatherlink.com 1.10,2013-03-26 23:29:00,
2013-03-26 19:44:00,41.7,25.0,29.73,West,276,0.0,0.0,52,0.00,,,0.04,weatherlink.com 1.10,2013-03-26 23:44:00,
2013-03-26 19:59:00,41.4,25.0,29.74,West,277,0.0,0.0,53,0.00,,,0.04,weatherlink.com 1.10,2013-03-26 23:59:00,
2013-03-26 20:14:00,40.5,25.0,29.74,West,277,0.0,0.0,55,0.00,,,0.04,weatherlink.com 1.10,2013-03-27 00:14:00,
2013-03-26 20:29:00,40.0,25.0,29.75,West,281,0.0,0.0,56,0.00,,,0.04,weatherlink.com 1.10,2013-03-27 00:29:00,
2013-03-26 20:44:00,39.4,25.0,29.75,West,281,0.0,0.0,57,0.00,,,0.04,weatherlink.com 1.10,2013-03-27 00:44:00,
2013-03-26 20:59:00,38.7,25.0,29.75,West,281,0.0,0.0,58,0.00,,,0.04,weatherlink.com 1.10,2013-03-27 00:59:00,
2013-03-26 21:14:00,38.1,25.0,29.75,West,281,0.0,0.0,59,0.00,,,0.04,weatherlink.com 1.10,2013-03-27 01:14:00,
2013-03-26 21:29:00,36.9,25.0,29.76,West,281,0.0,0.0,62,0.00,,,0.04,weatherlink.com 1.10,2013-03-27 01:29:00,
2013-03-26 21:45:00,36.8,25.0,29.76,WSW,256,0.0,0.0,62,0.00,,,0.04,weatherlink.com 1.10,2013-03-27 01:45:00,
2013-03-26 22:00:00,37.3,25.0,29.76,WNW,285,0.0,0.0,61,0.00,,,0.04,weatherlink.com 1.10,2013-03-27 02:00:00,
2013-03-26 22:15:00,36.9,24.0,29.77,WNW,291,0.0,0.0,61,0.00,,,0.04,weatherlink.com 1.10,2013-03-27 02:15:00,
2013-03-26 22:30:00,35.8,25.0,29.77,WNW,291,0.0,0.0,64,0.00,,,0.04,weatherlink.com 1.10,2013-03-27 02:30:00,
2013-03-26 22:45:00,34.4,24.0,29.77,WNW,291,0.0,0.0,66,0.00,,,0.04,weatherlink.com 1.10,2013-03-27 02:45:00,
2013-03-26 23:00:00,33.5,26.0,29.77,WNW,291,0.0,0.0,73,0.00,,,0.04,weatherlink.com 1.10,2013-03-27 03:00:00,
2013-03-26 23:15:00,34.3,24.0,29.77,WNW,291,0.0,0.0,65,0.00,,,0.04,weatherlink.com 1.10,2013-03-27 03:15:00,
2013-03-26 23:30:00,33.9,24.0,29.77,WNW,290,0.0,0.0,66,0.00,,,0.04,weatherlink.com 1.10,2013-03-27 03:30:00,
2013-03-26 23:45:00,33.3,24.0,29.77,WNW,290,0.0,0.0,69,0.00,,,0.04,weatherlink.com 1.10,2013-03-27 03:45:00,